Location: Unspecified
(40.7945°N, 0.0000°E)
Time: 08:52:13
(UTC+00:00)

deb Explorer IX - Pass Details

Date: 29 January 2021
Orbit: 538 x 1101 km, 38.8° (Epoch: 07 March)

Event Time Altitude Azimuth Distance (km) Brightness Sun altitude
Rises 19:40:21 0° 279° (W) 3,675 ? -27.8°
Reaches altitude 10° 19:43:15 10° 274° (W) 2,641 ? -28.3°
Maximum altitude 19:49:15 48° 202° (SSW) 1,083 ? -29.5°
Enters shadow 19:49:22 48° 198° (SSW) 1,081 ? -29.5°
